When you browse on this site, cookies collect data to enhance your experience and personalize the content and advertising you see.
Visit our Privacy Policy to learn more. By continuing to use the site, you agree to this use of cookies and data.
  • In Hungary
  • List of Countries
  • For 7 days
  • Water Temperature
  • Weather Map
  • News
  • Weather Widgets
  • user-avatar
    Login

    Hourly Weather Meshkovka

    Today, 21 January, Tuesday

    Time Temperature Precipitation Wind Pressure Humidity
    00:00 -3°C° 0 mm 6 mps 754 mmHg 86%
    01:00 -3°C° 0 mm 6 mps 753 mmHg 85%
    02:00 -2°C° 0 mm 6 mps 752 mmHg 87%
    03:00 -2°C° 0 mm 6 mps 751 mmHg 87%
    04:00 -2°C° 0 mm 6 mps 751 mmHg 87%
    05:00 -2°C° 0 mm 7 mps 750 mmHg 87%
    06:00 -2°C° 0 mm 6 mps 749 mmHg 87%
    07:00 -1°C° 0 mm 6 mps 748 mmHg 87%
    08:00 -1°C° 0 mm 6 mps 748 mmHg 84%
    09:00 -1°C° 0 mm 7 mps 747 mmHg 85%
    10:00 -1°C° 0 mm 7 mps 747 mmHg 85%
    11:00 0°C° 0 mm 8 mps 746 mmHg 86%
    12:00 0°C° 0 mm 8 mps 745 mmHg 88%
    13:00 0°C° 0 mm 8 mps 745 mmHg 89%
    14:00 0°C° 0 mm 8 mps 744 mmHg 91%
    15:00 +1°C° 0 mm 8 mps 744 mmHg 90%
    16:00 +1°C° 0 mm 8 mps 743 mmHg 89%
    17:00 +2°C° 0 mm 9 mps 742 mmHg 88%
    18:00 +2°C° 0 mm 9 mps 742 mmHg 88%
    19:00 +2°C° 0 mm 9 mps 742 mmHg 88%
    20:00 +2°C° 0 mm 8 mps 741 mmHg 87%
    21:00 +1°C° 0.1 mm 8 mps 741 mmHg 87%
    22:00 +2°C° 0.1 mm 7 mps 741 mmHg 87%
    23:00 +2°C° 0.1 mm 7 mps 741 mmHg 87%

    Tomorrow, 22 January, Wednesday

    Time Temperature Precipitation Wind Pressure Humidity
    00:00 +1°C° 0 mm 6 mps 741 mmHg 87%
    01:00 +1°C° 0 mm 6 mps 741 mmHg 87%
    02:00 -1°C° 0 mm 6 mps 741 mmHg 86%
    03:00 0°C° 0 mm 5 mps 740 mmHg 84%
    04:00 -1°C° 0 mm 5 mps 739 mmHg 82%
    05:00 -1°C° 0 mm 5 mps 738 mmHg 79%
    06:00 -1°C° 0 mm 4 mps 738 mmHg 80%
    07:00 -1°C° 0 mm 4 mps 737 mmHg 81%
    08:00 -1°C° 0 mm 3 mps 736 mmHg 82%
    09:00 -1°C° 0.2 mm 4 mps 736 mmHg 84%
    10:00 -1°C° 0.2 mm 4 mps 735 mmHg 86%
    11:00 -1°C° 0.2 mm 5 mps 735 mmHg 87%
    12:00 -1°C° 0.1 mm 5 mps 735 mmHg 90%
    13:00 -2°C° 0.1 mm 6 mps 735 mmHg 93%
    14:00 -2°C° 0.1 mm 6 mps 734 mmHg 95%
    15:00 -3°C° 0.7 mm 6 mps 735 mmHg 91%
    16:00 -3°C° 0.7 mm 6 mps 735 mmHg 87%
    17:00 -3°C° 0.7 mm 6 mps 735 mmHg 83%
    18:00 -4°C° 0 mm 6 mps 736 mmHg 82%
    19:00 -4°C° 0 mm 6 mps 737 mmHg 82%
    20:00 -5°C° 0 mm 6 mps 737 mmHg 81%
    21:00 -5°C° 0 mm 6 mps 738 mmHg 82%
    22:00 -5°C° 0 mm 6 mps 738 mmHg 82%
    23:00 -5°C° 0 mm 6 mps 739 mmHg 83%

    Day after tomorrow, 23 January, Thursday

    Time Temperature Precipitation Wind Pressure Humidity
    00:00 -5°C° 0 mm 6 mps 739 mmHg 82%
    01:00 -5°C° 0 mm 6 mps 740 mmHg 82%
    02:00 -5°C° 0 mm 6 mps 740 mmHg 82%
    03:00 -6°C° 0 mm 7 mps 740 mmHg 78%
    04:00 -7°C° 0 mm 7 mps 741 mmHg 74%
    05:00 -7°C° 0 mm 8 mps 741 mmHg 70%
    06:00 -8°C° 0 mm 7 mps 742 mmHg 70%
    07:00 -8°C° 0 mm 7 mps 743 mmHg 69%
    08:00 -8°C° 0 mm 6 mps 743 mmHg 68%
    09:00 -8°C° 0 mm 6 mps 744 mmHg 66%
    10:00 -7°C° 0 mm 7 mps 745 mmHg 64%
    11:00 -7°C° 0 mm 7 mps 745 mmHg 61%
    12:00 -6°C° 0 mm 7 mps 745 mmHg 61%
    13:00 -6°C° 0 mm 7 mps 746 mmHg 60%
    14:00 -4°C° 0 mm 7 mps 746 mmHg 60%
    15:00 -5°C° 0 mm 6 mps 746 mmHg 64%
    16:00 -5°C° 0 mm 6 mps 746 mmHg 67%
    17:00 -6°C° 0 mm 5 mps 746 mmHg 71%
    18:00 -6°C° 0 mm 5 mps 746 mmHg 74%
    19:00 -6°C° 0 mm 5 mps 747 mmHg 76%
    20:00 -6°C° 0 mm 5 mps 747 mmHg 79%
    21:00 -6°C° 0 mm 5 mps 747 mmHg 80%
    22:00 -5°C° 0 mm 4 mps 747 mmHg 81%
    23:00 -5°C° 0 mm 4 mps 748 mmHg 82%

    24 January, Friday

    Time Temperature Precipitation Wind Pressure Humidity
    00:00 -5°C° 0 mm 4 mps 748 mmHg 84%
    01:00 -5°C° 0 mm 4 mps 748 mmHg 85%
    02:00 -5°C° 0 mm 4 mps 748 mmHg 86%
    03:00 -4°C° 0 mm 4 mps 747 mmHg 87%
    04:00 -4°C° 0 mm 4 mps 747 mmHg 88%
    05:00 -4°C° 0 mm 4 mps 746 mmHg 88%
    06:00 -5°C° 0 mm 5 mps 746 mmHg 88%
    07:00 -5°C° 0 mm 5 mps 746 mmHg 88%
    08:00 -4°C° 0 mm 5 mps 745 mmHg 87%
    09:00 -4°C° 0 mm 6 mps 745 mmHg 89%
    10:00 -4°C° 0 mm 6 mps 745 mmHg 90%
    11:00 -4°C° 0 mm 6 mps 745 mmHg 91%
    12:00 -3°C° 0.1 mm 6 mps 745 mmHg 93%
    13:00 -3°C° 0.1 mm 6 mps 744 mmHg 95%
    14:00 -3°C° 0.1 mm 6 mps 744 mmHg 96%
    15:00 -2°C° 0.1 mm 6 mps 744 mmHg 96%
    16:00 -2°C° 0.1 mm 6 mps 744 mmHg 96%
    17:00 -1°C° 0.1 mm 6 mps 744 mmHg 96%
    18:00 -1°C° 0 mm 6 mps 744 mmHg 96%
    19:00 -1°C° 0 mm 6 mps 744 mmHg 96%
    20:00 0°C° 0 mm 5 mps 744 mmHg 96%
    21:00 0°C° 0 mm 5 mps 744 mmHg 95%
    22:00 0°C° 0 mm 5 mps 744 mmHg 95%
    23:00 -1°C° 0 mm 5 mps 744 mmHg 94%

    25 January, Saturday

    Time Temperature Precipitation Wind Pressure Humidity
    00:00 -1°C° 0 mm 5 mps 744 mmHg 94%
    01:00 -1°C° 0 mm 5 mps 744 mmHg 94%
    02:00 -1°C° 0 mm 5 mps 744 mmHg 95%
    03:00 -1°C° 0 mm 5 mps 744 mmHg 95%
    04:00 -1°C° 0 mm 5 mps 744 mmHg 95%
    05:00 -1°C° 0 mm 4 mps 744 mmHg 95%
    06:00 -1°C° 0 mm 4 mps 744 mmHg 95%
    07:00 -1°C° 0 mm 4 mps 744 mmHg 95%
    08:00 -1°C° 0 mm 4 mps 744 mmHg 94%
    09:00 -1°C° 0 mm 4 mps 744 mmHg 94%
    10:00 -1°C° 0 mm 4 mps 744 mmHg 93%
    11:00 -1°C° 0 mm 4 mps 744 mmHg 92%
    12:00 -1°C° 0 mm 4 mps 744 mmHg 92%
    13:00 -1°C° 0 mm 4 mps 744 mmHg 91%
    14:00 -1°C° 0 mm 4 mps 744 mmHg 91%
    15:00 -1°C° 0 mm 4 mps 744 mmHg 92%
    16:00 0°C° 0 mm 3 mps 744 mmHg 93%
    17:00 0°C° 0 mm 3 mps 744 mmHg 94%
    18:00 0°C° 0 mm 3 mps 744 mmHg 95%
    19:00 0°C° 0 mm 3 mps 744 mmHg 96%
    20:00 0°C° 0 mm 3 mps 744 mmHg 97%
    21:00 0°C° 0 mm 3 mps 744 mmHg 96%
    22:00 0°C° 0 mm 3 mps 744 mmHg 96%
    23:00 -1°C° 0 mm 3 mps 744 mmHg 95%

    26 January, Sunday

    Time Temperature Precipitation Wind Pressure Humidity
    00:00 -1°C° 0 mm 3 mps 744 mmHg 95%
    01:00 -1°C° 0 mm 3 mps 744 mmHg 95%
    02:00 -1°C° 0 mm 2 mps 744 mmHg 95%
    03:00 -1°C° 0 mm 2 mps 744 mmHg 95%
    04:00 -1°C° 0 mm 2 mps 744 mmHg 96%
    05:00 -1°C° 0 mm 2 mps 744 mmHg 96%
    06:00 -1°C° 0 mm 2 mps 744 mmHg 97%
    07:00 -1°C° 0 mm 2 mps 744 mmHg 97%
    08:00 -1°C° 0 mm 2 mps 744 mmHg 97%
    09:00 -1°C° 0.1 mm 2 mps 744 mmHg 97%
    10:00 +1°C° 0.1 mm 2 mps 744 mmHg 97%
    11:00 +1°C° 0.1 mm 2 mps 744 mmHg 97%
    12:00 +1°C° 0 mm 2 mps 744 mmHg 97%
    13:00 +1°C° 0 mm 2 mps 744 mmHg 97%
    14:00 +1°C° 0 mm 2 mps 744 mmHg 97%
    15:00 +1°C° 0 mm 2 mps 744 mmHg 97%
    16:00 +1°C° 0 mm 2 mps 744 mmHg 98%
    17:00 -1°C° 0 mm 2 mps 744 mmHg 98%
    18:00 -1°C° 0 mm 2 mps 744 mmHg 98%
    19:00 +1°C° 0 mm 2 mps 744 mmHg 98%
    20:00 +1°C° 0 mm 2 mps 744 mmHg 98%
    21:00 +1°C° 0 mm 2 mps 744 mmHg 98%
    22:00 +1°C° 0 mm 2 mps 745 mmHg 98%
    23:00 +1°C° 0 mm 2 mps 745 mmHg 98%
    Show more